Tracking 18030 objects as of 29-March-2017
HD Live streaming from Space Station
objects crossing your sky now

THORAD AGENA D DEB

Track THORAD AGENA D DEB now!
10-day predictions


NORAD ID: 4935
Int'l Code: 1970-025GB
Perigee: 912.9 km
Apogee: 1,008.0 km
Inclination: 99.8 °
Period: 104.1 minutes
Semi major axis: 7331 km
RCS: 0.0346 m2 (small)
Launch date: April 8, 1970
Source: United States (US)
Launch site: AIR FORCE WESTERN TEST RANGE (AFWTR)

Note: This is SATELLITE DEBRIS
Your satellite tracking list
Your tracking list is empty





NASA's NSSDC Master Catalog

Two Line Element Set (TLE):
1  4935U 70025GB  17087.72646834 +.00000292 +00000-0 +30645-3 0  9992
2  4935 099.8339 358.8388 0064828 179.2920 250.6063 13.82979119351107
Source of the keplerian elements: AFSPC